Location: Newark
(48.6461°N, 4.3644°W)
Time: 08:47:48
(UTC+00:00)

Altair - Pass Details

Date: 21 January 2021
Orbit: 1501 x 1682 km, 47.2° (Epoch: 24 February)

Event Time Altitude Azimuth Distance (km) Brightness Sun altitude
Exits shadow 04:12:59 - 182° (S) 4,596 9.9 -37.0°
Reaches altitude 10° 04:16:10 10° 170° (S) 3,892 9.6 -36.5°
Maximum altitude 04:22:48 20° 128° (SE) 3,178 9.5 -35.4°
Drops below altitude 10° 04:29:29 10° 86° (E) 3,947 10.4 -34.3°
Sets 04:33:44 0° 71° (ENE) 4,940 11.2 -33.6°
